[Date Prev][Date Next][Thread Prev][Thread Next] - [Date Index][Thread Index][Author Index]

2 Line ISS Keps 8-18



ISS 
1 25544U 98067A   03230.10486111  .00011576  00000-0  13934-3 0  3560
2 25544  51.6328  68.5643 0007799 138.7099 350.6994 15.61300234270671



----
Via the sarex mailing list at AMSAT.ORG courtesy of AMSAT-NA.
To unsubscribe, send "unsubscribe sarex" to Majordomo@amsat.org



AMSAT Top AMSAT Home